[[{"header":{"parameterUnit":"m.s-1","parameterCategory":1,"la1":30.2991,"la2":30.254,"lo1":-89.0895,"lo2":-89.0444,"dy":0.0017,"dx":0.0017,"nx":28,"ny":28,"refTime":"2024-10-11T21:00:00:Z","depth":0,"parameterNumber":2,"parameterNumberName":"U-component_of_WINDS"},"data":[0,0,0,0,0,0,0,0,0,0,0,0,0,0,0,0,0,0,0,0,0,0,0,0,0,0,0,0,0,0,0,0,0,0,0,0,0,0,0,0,0,0,0,0,0,0,0,0,0,0,0,0,0,0,0,0,0,0,-0.2074,-0.2075,0,-0.2109,-0.2109,-0.2109,-0.2104,-0.2104,-0.2103,-0.2102,-0.2139,-0.2141,-0.2142,0,0,0,0,0,0,0,0,0,0,0,0,0,-0.2007,-0.2008,-0.2074,-0.2075,-0.2075,-0.2109,-0.2109,-0.2109,-0.2104,-0.2103,-0.2103,-0.2102,-0.2139,-0.2141,-0.2143,0,0,0,0,0,0,0,0,0,0,0,0,0,-0.2038,-0.2009,-0.2074,-0.2076,-0.2077,-0.2108,-0.2109,-0.211,-0.2104,-0.2103,-0.2103,-0.2102,-0.2138,-0.2141,-0.2143,-0.2175,0,0,-0.215,-0.2151,0,0,0,0,0,0,0,0,-0.2037,-0.2041,-0.2076,-0.2076,-0.2077,-0.2101,-0.2099,-0.2132,-0.2105,-0.2094,-0.2102,-0.2101,-0.2128,-0.2131,-0.2139,-0.2176,-0.2178,-0.215,-0.2151,-0.2152,-0.2153,0,0,0,0,0,0,0,-0.2035,-0.2039,-0.2088,-0.2076,-0.2077,-0.2077,-0.208,-0.2105,-0.2115,-0.2095,-0.2095,-0.2099,-0.2128,-0.2137,-0.214,-0.2179,-0.215,-0.2152,-0.2153,-0.2154,-0.2246,-0.2247,0,0,0,0,0,0,-0.2031,-0.2038,-0.2087,-0.2089,-0.2054,-0.2079,-0.2083,-0.2094,-0.2115,-0.2117,-0.2099,-0.2098,-0.2133,-0.2137,-0.2141,-0.2181,-0.2152,-0.2155,-0.2156,-0.2245,-0.2246,-0.2247,0,0,0,0,0,0,-0.203,-0.2036,-0.2085,-0.2063,-0.207,-0.2081,-0.2094,-0.2095,-0.2105,-0.2118,-0.212,-0.2107,-0.2133,-0.2138,-0.2167,-0.2182,-0.2156,-0.2158,-0.2244,-0.2245,-0.2247,-0.2261,0,0,0,0,0,0,-0.2028,-0.2035,-0.2047,-0.2064,-0.2071,-0.211,-0.2095,-0.2097,-0.2108,-0.2107,-0.2126,-0.2128,-0.2133,-0.2163,-0.2169,-0.2185,-0.216,-0.2242,-0.2245,-0.2246,-0.2259,-0.2263,-0.2266,0,0,0,0,0,-0.2026,-0.2049,-0.2047,-0.2053,-0.2085,-0.211,-0.2115,-0.2119,-0.211,-0.2122,-0.2131,-0.2127,-0.218,-0.2166,-0.2173,-0.219,-0.2242,-0.2244,-0.2246,-0.2257,-0.2262,-0.2266,0,0,0,0,0,0,-0.2034,-0.2051,-0.2049,-0.2079,-0.2093,-0.2109,-0.2125,-0.2123,-0.2141,-0.2139,-0.2144,-0.2148,-0.2178,-0.2187,-0.2171,-0.2223,-0.221,-0.2213,-0.2216,-0.222,-0.2224,-0.2221,-0.2161,0,0,0,0,0,-0.204,-0.2058,-0.2072,-0.2097,-0.2104,-0.2113,-0.2124,-0.2127,-0.2142,-0.2148,-0.2159,-0.2175,-0.2195,-0.2208,-0.2227,-0.226,-0.2265,-0.2275,-0.2279,-0.2281,-0.2285,-0.2305,-0.231,-0.2255,-0.2255,-0.2255,0,0,-0.2051,-0.2063,-0.2074,-0.2099,-0.211,-0.213,-0.2118,-0.214,-0.2155,-0.2151,-0.2179,-0.2188,-0.2206,-0.2238,-0.2252,-0.2246,-0.2301,-0.2284,-0.2286,-0.2288,-0.2308,-0.2313,-0.2317,-0.2257,-0.2257,-0.2256,0,0,-0.2082,-0.2092,-0.2114,-0.2126,-0.2143,-0.2149,-0.2155,-0.2172,-0.2177,-0.2205,-0.2204,-0.2222,-0.2256,-0.227,-0.2281,-0.2318,-0.2317,-0.2325,-0.2343,-0.2362,-0.2366,-0.237,-0.2385,-0.239,-0.2328,-0.2328,-0.2328,0,-0.2094,-0.2123,-0.2126,-0.2148,-0.216,-0.2157,-0.2181,-0.2193,-0.2215,-0.2224,-0.2217,-0.2261,-0.2272,-0.2308,-0.2317,-0.2326,-0.2333,-0.2323,-0.2365,-0.2369,-0.2373,-0.2387,-0.2392,-0.2329,-0.2329,-0.2329,-0.2329,0,-0.2137,-0.2158,-0.2174,-0.2196,-0.221,-0.2232,-0.224,-0.2254,-0.2255,-0.2263,-0.2293,-0.2307,-0.2329,-0.2338,-0.2339,-0.2374,-0.237,-0.2364,-0.2351,-0.2379,-0.2392,-0.2398,-0.233,-0.233,-0.233,-0.2329,0,0,-0.2174,-0.2199,-0.2205,-0.2215,-0.2235,-0.2251,-0.2274,-0.2296,-0.2309,-0.2325,-0.2345,-0.2375,-0.237,-0.2383,-0.2386,-0.2403,-0.2433,-0.2395,-0.2395,-0.2402,-0.2474,-0.248,-0.2486,-0.2432,-0.2433,-0.2434,-0.2473,0,-0.2208,-0.2248,-0.2253,-0.2289,-0.2309,-0.2307,-0.2328,-0.2343,-0.2351,-0.237,-0.2379,-0.24,-0.2391,-0.2399,-0.2415,-0.2426,-0.2448,-0.2423,-0.2453,-0.2453,-0.2449,-0.2492,-0.2498,-0.2534,-0.2479,-0.2479,-0.248,0,-0.2252,-0.227,-0.2308,-0.2326,-0.2335,-0.2353,-0.2374,-0.2392,-0.2409,-0.2414,-0.2429,-0.243,-0.2456,-0.2441,-0.2478,-0.2461,-0.2473,-0.248,-0.2482,-0.2485,-0.2469,-0.2498,-0.2546,-0.2552,-0.2488,-0.2487,-0.2487,0,-0.2277,-0.231,-0.2338,-0.2347,-0.2368,-0.2381,-0.2391,-0.2407,-0.2421,-0.244,-0.2449,-0.247,-0.2483,-0.25,-0.2508,-0.2496,-0.2544,-0.253,-0.255,-0.255,-0.256,-0.256,-0.2612,-0.2567,-0.2567,-0.2567,-0.2567,0,-0.2314,-0.2338,-0.2349,-0.2366,-0.2394,-0.2399,-0.2426,-0.2435,-0.245,-0.247,-0.2471,-0.2489,-0.2498,-0.2519,-0.2525,-0.2555,-0.256,-0.2566,-0.2567,-0.2566,-0.2566,-0.2575,-0.2573,-0.2568,-0.2568,-0.2568,-0.2567,0,-0.2347,-0.2355,-0.2385,-0.2403,-0.2408,-0.2427,-0.2443,-0.2461,-0.2469,-0.2494,-0.25,-0.2513,-0.2538,-0.2547,-0.2577,-0.2581,-0.2616,-0.2615,-0.261,-0.2611,-0.2631,-0.2629,-0.2691,-0.27,-0.2648,-0.2649,-0.2649,0,-0.237,-0.2389,-0.2409,-0.2422,-0.2432,-0.2453,-0.2467,-0.2473,-0.2488,-0.251,-0.2525,-0.2549,-0.2569,-0.2609,-0.2621,-0.2645,-0.2645,-0.2665,-0.2648,-0.2647,-0.2647,-0.2646,-0.2649,-0.2668,-0.2669,-0.2669,-0.267,0,-0.2412,-0.2416,-0.2435,-0.2456,-0.2473,-0.249,-0.2507,-0.2518,-0.2527,-0.2544,-0.2568,-0.2584,-0.2615,-0.2639,-0.2663,-0.2675,-0.2675,-0.2675,-0.2681,-0.268,-0.2677,-0.268,-0.262,-0.2673,-0.2673,-0.2673,-0.2673,-0.2672,-0.2442,-0.2459,-0.2476,-0.2498,-0.2511,-0.2527,-0.2545,-0.2555,-0.2576,-0.2601,-0.2604,-0.2631,-0.265,-0.2682,-0.2694,-0.2717,-0.2711,-0.272,-0.2722,-0.2724,-0.2726,-0.2673,-0.2721,-0.2721,-0.2721,-0.2721,-0.2721,0,-0.2485,-0.2496,-0.2516,-0.254,-0.2558,-0.2555,-0.2574,-0.2589,-0.2613,-0.263,-0.265,-0.2679,-0.2703,-0.2718,-0.2743,-0.2758,-0.2759,-0.2764,-0.2764,-0.2767,-0.2729,-0.2722,-0.2764,-0.2764,-0.2764,-0.2764,-0.2764,-0.2764,-0.251,-0.2538,-0.2544,-0.258,-0.2591,-0.2617,-0.2629,-0.2644,-0.2658,-0.269,-0.271,-0.272,-0.2737,-0.2763,-0.2785,-0.2789,-0.2799,-0.2806,-0.2809,-0.2774,-0.2769,-0.2765,-0.2758,-0.2807,-0.2807,-0.2845,-0.2846,-0.2846]},{"header":{"parameterUnit":"m.s-1","parameterCategory":1,"la1":30.2991,"la2":30.254,"lo1":-89.0895,"lo2":-89.0444,"dy":0.0017,"dx":0.0017,"nx":28,"ny":28,"refTime":"2024-10-11T21:00:00:Z","depth":0,"parameterNumber":3,"parameterNumberName":"V-component_of_WINDS"},"data":[0,0,0,0,0,0,0,0,0,0,0,0,0,0,0,0,0,0,0,0,0,0,0,0,0,0,0,0,0,0,0,0,0,0,0,0,0,0,0,0,0,0,0,0,0,0,0,0,0,0,0,0,0,0,0,0,0,0,2.0167,2.0166,0,2.0143,2.0143,2.0143,2.0115,2.0115,2.0114,2.0114,2.0089,2.0089,2.0088,0,0,0,0,0,0,0,0,0,0,0,0,0,2.0186,2.0185,2.0167,2.0166,2.0166,2.0143,2.0143,2.0143,2.0115,2.0114,2.0114,2.0113,2.0089,2.0089,2.0088,0,0,0,0,0,0,0,0,0,0,0,0,0,2.0171,2.0185,2.0167,2.0149,2.0148,2.0143,2.0143,2.0143,2.0115,2.0114,2.0114,2.0113,2.0089,2.0089,2.0088,2.0099,0,0,2.0087,2.0087,0,0,0,0,0,0,0,0,2.0172,2.0171,2.0152,2.0151,2.0149,2.0131,2.0141,2.0128,2.0115,2.0127,2.0114,2.0113,2.0104,2.0102,2.0099,2.0098,2.0097,2.0087,2.0087,2.0087,2.0087,0,0,0,0,0,0,0,2.0173,2.0171,2.0157,2.0152,2.015,2.0142,2.014,2.0138,2.0119,2.0126,2.0124,2.0122,2.0102,2.0099,2.0098,2.0096,2.0087,2.0087,2.0087,2.0086,2.01,2.01,0,0,0,0,0,0,2.0177,2.0173,2.0158,2.0157,2.0159,2.0143,2.014,2.0138,2.0119,2.0116,2.0123,2.0121,2.01,2.0099,2.0097,2.0106,2.0087,2.0086,2.0086,2.0099,2.01,2.0101,0,0,0,0,0,0,2.0177,2.0176,2.0159,2.0164,2.0161,2.0143,2.0141,2.0137,2.0134,2.0116,2.0113,2.0123,2.01,2.0098,2.0098,2.0105,2.0086,2.0086,2.0099,2.0099,2.01,2.0126,0,0,0,0,0,0,2.0178,2.0176,2.018,2.0164,2.0161,2.0161,2.0141,2.0137,2.0134,2.0131,2.0116,2.0113,2.0099,2.0099,2.0098,2.0104,2.0086,2.0098,2.0099,2.01,2.0125,2.0128,2.0131,0,0,0,0,0,2.0179,2.0189,2.0181,2.0179,2.0166,2.0161,2.016,2.0144,2.0135,2.0138,2.0126,2.0113,2.0105,2.0099,2.0098,2.0104,2.0097,2.0099,2.01,2.0123,2.0127,2.0131,0,0,0,0,0,0,2.0207,2.0187,2.0177,2.0183,2.0174,2.0157,2.0161,2.0149,2.0143,2.0141,2.0121,2.0118,2.012,2.0112,2.0106,2.0112,2.0099,2.01,2.0117,2.0121,2.0124,2.0125,2.0085,0,0,0,0,0,2.0213,2.0212,2.0194,2.02,2.0196,2.018,2.0177,2.0166,2.0156,2.0152,2.014,2.0131,2.0126,2.0123,2.0118,2.0124,2.0119,2.0127,2.013,2.0133,2.0134,2.0134,2.0137,2.0105,2.0105,2.0105,0,0,2.0227,2.0216,2.0216,2.0206,2.0198,2.0195,2.0177,2.0176,2.0174,2.0152,2.0151,2.0142,2.013,2.0133,2.0134,2.0126,2.0142,2.0135,2.0137,2.0136,2.0136,2.0139,2.0142,2.0106,2.0106,2.0106,0,0,2.0251,2.0243,2.0246,2.0239,2.0227,2.0215,2.0216,2.02,2.0194,2.0193,2.0176,2.0173,2.0165,2.0157,2.0152,2.0171,2.0158,2.017,2.0185,2.0186,2.0189,2.0191,2.0196,2.0199,2.0171,2.0171,2.0171,0,2.0269,2.0266,2.025,2.0249,2.0245,2.0225,2.0227,2.0221,2.0207,2.0204,2.0197,2.0185,2.0176,2.0176,2.018,2.0177,2.0177,2.0171,2.019,2.0192,2.0193,2.0198,2.0201,2.0172,2.0172,2.0172,2.0172,0,2.0289,2.0287,2.0291,2.0278,2.0274,2.0275,2.0258,2.0256,2.0245,2.0234,2.0232,2.022,2.0211,2.0211,2.02,2.0208,2.0204,2.0194,2.018,2.0198,2.0202,2.0204,2.0174,2.0174,2.0174,2.0173,0,0,2.0329,2.0307,2.0309,2.0302,2.0287,2.0285,2.0285,2.0276,2.0273,2.0265,2.0263,2.0257,2.0246,2.024,2.0229,2.023,2.0244,2.0218,2.0218,2.0222,2.025,2.0257,2.026,2.0235,2.0235,2.0236,2.025,0,2.0349,2.0348,2.0333,2.0336,2.0332,2.0313,2.0313,2.0303,2.0292,2.0288,2.0276,2.0271,2.0259,2.0254,2.0255,2.0242,2.0249,2.0241,2.0232,2.0232,2.0235,2.0262,2.027,2.0285,2.0252,2.0252,2.0253,0,2.0373,2.0365,2.0367,2.0351,2.0349,2.0349,2.0339,2.0335,2.0323,2.0315,2.0308,2.0295,2.0292,2.028,2.0275,2.027,2.0265,2.0259,2.0259,2.0257,2.0243,2.026,2.0289,2.0291,2.0255,2.0255,2.0255,0,2.04,2.039,2.039,2.0385,2.0367,2.0367,2.0359,2.0346,2.0341,2.0333,2.0329,2.032,2.0315,2.0308,2.0291,2.0284,2.0288,2.0275,2.028,2.0281,2.0282,2.0282,2.031,2.0281,2.0281,2.0281,2.0281,0,2.0423,2.0425,2.0402,2.0402,2.0403,2.0385,2.0387,2.0377,2.0365,2.0362,2.0345,2.0342,2.0321,2.0316,2.0303,2.03,2.0299,2.0291,2.0288,2.0292,2.0293,2.0288,2.0286,2.0281,2.0281,2.0281,2.0281,0,2.0454,2.0439,2.0437,2.0419,2.0415,2.0416,2.04,2.0399,2.0387,2.0383,2.0381,2.0362,2.0355,2.0338,2.0326,2.0317,2.0317,2.0312,2.0321,2.0319,2.0325,2.0324,2.0351,2.0352,2.0323,2.0324,2.0324,0,2.0469,2.047,2.0452,2.0449,2.0442,2.0437,2.0432,2.0414,2.0409,2.0395,2.0395,2.0386,2.0378,2.0366,2.0351,2.0341,2.0334,2.0344,2.0333,2.0337,2.0333,2.0333,2.0332,2.0346,2.0347,2.0347,2.0348,0,2.0498,2.049,2.0483,2.0474,2.0468,2.046,2.0451,2.0449,2.0429,2.0424,2.0416,2.041,2.0397,2.0388,2.0376,2.0367,2.0353,2.0351,2.0352,2.0356,2.0361,2.0357,2.0327,2.0351,2.035,2.035,2.035,2.035,2.052,2.0519,2.0506,2.0499,2.049,2.0482,2.0479,2.0467,2.046,2.0449,2.0439,2.0431,2.0418,2.04,2.0391,2.0385,2.0378,2.0379,2.0379,2.038,2.0381,2.0363,2.0382,2.0382,2.0382,2.0382,2.0382,0,2.0546,2.0537,2.0531,2.0518,2.0512,2.0501,2.0489,2.0485,2.0479,2.0468,2.046,2.045,2.0441,2.0425,2.0414,2.0411,2.0405,2.0409,2.0408,2.0406,2.0388,2.0388,2.0414,2.0414,2.0414,2.0414,2.0414,2.0414,2.0559,2.0557,2.0547,2.054,2.053,2.0523,2.0518,2.0509,2.05,2.049,2.0482,2.0472,2.0458,2.0446,2.0436,2.0432,2.0428,2.0434,2.0427,2.041,2.0407,2.0405,2.0404,2.0433,2.0433,2.0445,2.0445,2.0445]}]]